FW7828 Weather Reports


time (UTC)temp
F
wind
direction
speed
knots
gust
knots
rain 1hr
in
rain 24hr
in
rain mn
in
humidity
%
barometer
mb
20260906000807 75 2 1.7 1.7 0.00 0.20 0.20 95 1008.9
20260906000303 76 41 0.9 0.9 0.00 0.20 0.20 95 1009.1
20260905235757 76 8 1.7 1.7 0.00 0.20 0.20 95 1008.8
20260905235256 76 22 0.0 0.9 0.00 0.20 0.20 95 1008.4
20260905234752 76 34 0.9 0.9 0.00 0.20 0.20 95 1008.1
20260905234247 76 41 0.0 0.0 0.00 0.20 0.20 95 1008.2
20260905233742 77 24 0.0 0.0 0.00 0.20 0.20 94 1008.4
20260905233242 77 357 0.9 0.9 0.00 0.20 0.20 94 1008.4
20260905232742 76 40 0.0 0.0 0.00 0.20 0.20 94 1008.5
20260905232238 76 10 0.9 0.9 0.12 0.20 0.20 93 1008.3
20260905231733 77 51 0.0 0.0 1.02 0.20 0.20 93 1008.4
20260905231229 77 58 0.0 0.9 1.02 0.18 0.18 91 1008.4
20260905230725 78 10 1.7 1.7 0.26 0.04 0.04 89 1008.5
20260905230222 79 11 0.9 0.9 0.07 0.01 0.01 87 1008.5
20260905225722 79 21 0.0 0.0 0.00 0.00 0.00 87 1008.7
20260905225217 79 11 0.9 0.9 0.00 0.00 0.00 88 1009.0
20260905224716 79 17 0.0 0.9 0.00 0.00 0.00 88 1008.8
20260905224212 79 9 1.7 1.7 0.00 0.00 0.00 89 1008.8
20260905223708 79 10 1.7 1.7 0.00 0.00 0.00 90 1008.8
20260905223205 79 16 1.7 1.7 0.00 0.00 0.00 90 1008.7
20260905222700 79 11 0.9 0.9 0.00 0.00 0.00 90 1008.3
20260905222159 80 9 1.7 1.7 0.00 0.00 0.00 89 1008.2
20260905221655 80 358 0.9 0.9 0.00 0.00 0.00 88 1008.2
20260905221152 81 12 1.7 1.7 0.00 0.00 0.00 87 1008.1
20260905220647 82 6 0.9 1.7 0.00 0.00 0.00 85 1007.9
20260905220143 83 22 1.7 1.7 0.00 0.00 0.00 82 1007.8
20260905215643 82 25 0.9 0.9 0.00 0.00 0.00 82 1007.7
20260905215138 82 26 0.9 0.9 0.00 0.00 0.00 83 1007.6
20260905214634 82 9 0.9 0.9 0.00 0.00 0.00 83 1007.5
20260905214129 83 12 0.0 0.0 0.00 0.00 0.00 84 1007.5
20260905213624 83 28 0.0 0.0 0.00 0.00 0.00 83 1007.7
20260905213120 84 0 0.9 0.9 0.00 0.00 0.00 82 1007.8
20260905212615 84 24 0.0 0.0 0.00 0.00 0.00 81 1007.9
20260905212114 84 12 0.9 0.9 0.00 0.00 0.00 81 1008.0
20260905211609 84 9 0.9 0.9 0.00 0.00 0.00 80 1007.8
20260905211105 84 15 0.9 0.9 0.00 0.00 0.00 81 1007.7
20260905210601 84 341 0.9 0.9 0.00 0.00 0.00 81 1007.6
20260905210055 84 21 0.0 0.9 0.00 0.00 0.00 83 1007.5
20260905205555 84 34 0.0 0.0 0.00 0.00 0.00 83 1007.8
20260905205055 85 23 0.0 0.9 0.00 0.00 0.00 82 1007.7
20260905204549 86 34 0.0 0.0 0.00 0.00 0.00 79 1007.5
20260905204044 87 36 0.9 0.9 0.00 0.00 0.00 78 1007.7
20260905203544 87 97 0.0 0.0 0.00 0.00 0.00 74 1007.5
20260905203040 88 103 0.0 0.9 0.00 0.00 0.00 73 1007.6
20260905202535 88 106 0.9 0.9 0.00 0.00 0.00 73 1007.6
20260905202030 88 87 0.0 0.9 0.00 0.00 0.00 75 1007.8
20260905201526 88 86 0.0 0.0 0.00 0.00 0.00 74 1007.8
20260905201025 87 117 0.9 0.9 0.00 0.00 0.00 74 1007.9
20260905200521 88 113 0.9 0.9 0.00 0.00 0.00 73 1007.8
20260905200020 89 115 0.9 0.9 0.00 0.00 0.00 74 1008.0
20260905195514 89 23 0.9 0.9 0.00 0.00 0.00 74 1008.2
20260905195010 88 104 0.9 0.9 0.00 0.00 0.00 74 1008.0
20260905194504 88 128 0.9 0.9 0.00 0.00 0.00 73 1008.3
20260905194003 87 2 0.0 0.0 0.00 0.00 0.00 76 1008.4
20260905193458 87 111 0.9 1.7 0.00 0.00 0.00 75 1008.4
20260905192953 88 24 0.0 0.0 0.00 0.00 0.00 75 1008.4
20260905192449 88 82 0.9 0.9 0.00 0.00 0.00 75 1008.6
20260905191944 88 90 0.9 0.9 0.00 0.00 0.00 75 1008.4
20260905191438 88 133 0.9 0.9 0.00 0.00 0.00 74 1008.7
20260905190937 88 103 0.0 0.9 0.00 0.00 0.00 74 1008.6
20260905190435 88 121 0.9 0.9 0.00 0.00 0.00 73 1008.7
20260905185934 88 145 0.0 0.9 0.00 0.00 0.00 74 1008.8
20260905185429 88 124 0.0 0.9 0.00 0.00 0.00 73 1008.9
20260905184928 88 150 1.7 1.7 0.00 0.00 0.00 72 1008.7
20260905184423 88 75 1.7 1.7 0.00 0.00 0.00 74 1008.9
20260905183921 88 134 0.9 1.7 0.00 0.00 0.00 75 1009.0
20260905183410 88 147 0.9 1.7 0.00 0.00 0.00 73 1009.0
20260905182905 87 164 1.7 1.7 0.00 0.00 0.00 74 1009.2
20260905182404 87 138 1.7 1.7 0.00 0.00 0.00 75 1009.3
20260905181901 87 133 1.7 1.7 0.00 0.00 0.00 74 1009.3
20260905181401 87 144 0.9 0.9 0.00 0.00 0.00 78 1009.2
20260905180859 86 125 0.9 0.9 0.00 0.00 0.00 76 1009.3
20260905180355 86 89 0.0 0.9 0.00 0.00 0.00 77 1009.3
20260905175849 86 120 2.6 2.6 0.00 0.00 0.00 76 1009.3
20260905175344 86 162 0.9 1.7 0.00 0.00 0.00 76 1009.2
20260905174839 87 164 0.0 0.9 0.00 0.00 0.00 78 1009.4
20260905174335 87 159 0.9 0.9 0.00 0.00 0.00 76 1009.6
20260905173830 87 158 2.6 2.6 0.00 0.00 0.00 76 1009.5
20260905173326 87 182 0.9 0.9 0.00 0.00 0.00 78 1009.7
20260905172826 87 153 0.9 0.9 0.00 0.00 0.00 76 1009.6
20260905172324 86 185 1.7 1.7 0.00 0.00 0.00 78 1009.7
20260905171821 85 160 0.9 1.7 0.00 0.00 0.00 79 1009.7
20260905171317 85 286 0.9 1.7 0.00 0.00 0.00 78 1009.8
20260905170813 86 225 1.7 1.7 0.00 0.00 0.00 79 1009.8
20260905170309 86 237 1.7 1.7 0.00 0.00 0.00 77 1009.9
20260905165808 85 43 0.0 0.0 0.00 0.00 0.00 78 1009.9
20260905165306 85 171 0.9 0.9 0.00 0.00 0.00 79 1009.9
20260905164803 85 174 2.6 2.6 0.00 0.00 0.00 78 1009.9
20260905164258 85 187 0.9 1.7 0.00 0.00 0.00 79 1010.0
20260905163754 85 173 1.7 1.7 0.00 0.00 0.00 78 1010.0
20260905163250 85 182 2.6 2.6 0.00 0.00 0.00 79 1010.3
20260905162746 84 278 0.9 0.9 0.00 0.00 0.00 80 1010.2
20260905162245 84 224 1.7 2.6 0.00 0.00 0.00 80 1010.0
20260905161740 85 225 0.9 0.9 0.00 0.00 0.00 79 1010.2
20260905161239 85 261 0.0 0.9 0.00 0.00 0.00 79 1010.1
20260905160737 84 188 0.9 1.7 0.00 0.00 0.00 80 1010.1
20260905160237 84 273 0.9 0.9 0.00 0.00 0.00 81 1010.2
20260905155732 84 257 0.9 1.7 0.00 0.00 0.00 80 1010.6
20260905155231 83 120 0.9 0.9 0.00 0.00 0.00 80 1010.7
20260905154725 83 174 1.7 1.7 0.00 0.00 0.00 80 1010.5
20260905154221 83 164 1.7 1.7 0.00 0.00 0.00 80 1010.8
20260905153716 83 287 0.9 1.7 0.00 0.00 0.00 81 1010.7
20260905153212 83 154 1.7 1.7 0.00 0.00 0.00 79 1010.6
20260905152707 83 182 0.9 1.7 0.00 0.00 0.00 80 1010.6
20260905152201 83 167 0.9 1.7 0.00 0.00 0.00 79 1010.6
20260905151701 83 265 1.7 1.7 0.00 0.00 0.00 82 1010.7
20260905151157 82 138 0.9 0.9 0.00 0.00 0.00 82 1010.6
20260905150652 82 164 1.7 1.7 0.00 0.00 0.00 82 1010.4
20260905150150 82 70 0.0 0.0 0.00 0.00 0.00 81 1010.4
20260905145649 82 125 0.9 0.9 0.00 0.00 0.00 82 1010.7
20260905145149 82 169 1.7 1.7 0.00 0.00 0.00 81 1010.7
20260905144643 81 215 0.9 0.9 0.00 0.00 0.00 83 1010.6
20260905144143 80 181 2.6 2.6 0.00 0.00 0.00 83 1010.6
20260905143637 80 184 0.9 1.7 0.00 0.00 0.00 85 1010.2
20260905143132 80 156 1.7 1.7 0.00 0.00 0.00 85 1010.2
20260905142630 79 313 0.0 0.0 0.00 0.00 0.00 86 1010.2
20260905142125 79 173 0.9 1.7 0.00 0.00 0.00 86 1010.3
20260905141624 79 175 0.9 0.9 0.00 0.00 0.00 86 1010.3
20260905141121 79 159 0.0 0.9 0.00 0.00 0.00 86 1010.3
20260905140616 79 156 0.0 0.9 0.00 0.00 0.00 86 1010.2
20260905140115 78 63 0.0 0.0 0.00 0.00 0.00 87 1010.2
20260905135611 78 84 0.0 0.9 0.00 0.00 0.00 86 1010.5
20260905135106 79 238 0.9 0.9 0.00 0.00 0.00 87 1010.5
20260905134601 78 180 1.7 1.7 0.00 0.00 0.00 86 1010.4
20260905134059 78 46 0.9 0.9 0.00 0.00 0.00 86 1010.6
20260905133555 79 71 0.9 1.7 0.00 0.00 0.00 86 1010.6
20260905133054 79 169 2.6 2.6 0.00 0.00 0.00 85 1010.3
20260905132554 79 176 0.9 1.7 0.00 0.00 0.00 86 1010.5
20260905132049 78 351 0.0 0.9 0.00 0.00 0.00 86 1010.4
20260905131545 78 145 0.0 0.9 0.00 0.00 0.00 85 1010.6
20260905131040 78 136 1.7 1.7 0.00 0.00 0.00 85 1010.6
20260905130539 78 169 0.9 0.9 0.00 0.00 0.00 86 1010.5
20260905130034 77 205 0.9 0.9 0.00 0.00 0.00 87 1010.4
20260905125533 77 192 0.0 0.0 0.00 0.00 0.00 87 1010.6
20260905125029 77 92 0.0 0.0 0.00 0.00 0.00 89 1010.4
20260905124526 76 73 0.0 0.0 0.00 0.00 0.00 90 1010.5
20260905124021 75 132 0.9 0.9 0.00 0.00 0.00 92 1010.6
20260905123517 75 319 0.0 0.0 0.00 0.00 0.00 94 1010.6
20260905123014 74 115 0.0 0.0 0.00 0.00 0.00 94 1010.6
20260905122513 74 293 0.0 0.0 0.00 0.00 0.00 95 1010.6
20260905122008 74 15 0.0 0.0 0.00 0.00 0.00 95 1010.5
20260905121503 74 344 0.0 0.0 0.00 0.00 0.00 95 1010.6
20260905121002 74 342 0.0 0.0 0.00 0.00 0.00 96 1010.6
20260905120456 73 290 0.0 0.0 0.00 0.00 0.00 95 1010.6
20260905115952 73 345 0.0 0.0 0.00 0.00 0.00 96 1010.5
20260905115451 73 345 0.0 0.0 0.00 0.00 0.00 95 1010.7
20260905114946 73 345 0.0 0.0 0.00 0.00 0.00 95 1010.5
20260905114446 73 354 0.0 0.0 0.00 0.00 0.00 95 1010.5
20260905113944 73 301 0.0 0.0 0.00 0.00 0.00 95 1010.3
20260905113440 72 348 0.0 0.0 0.00 0.00 0.00 95 1010.3
20260905112935 72 48 0.0 0.0 0.00 0.00 0.00 95 1010.1
20260905112431 72 51 0.0 0.0 0.00 0.00 0.00 95 1010.2
20260905111926 72 51 0.0 0.0 0.00 0.00 0.00 95 1010.1
20260905111426 72 51 0.0 0.0 0.00 0.00 0.00 95 1010.0
20260905110920 72 51 0.0 0.0 0.00 0.00 0.00 95 1010.0
20260905110414 72 53 0.0 0.0 0.00 0.00 0.00 95 1009.9
20260905105909 72 55 0.0 0.0 0.00 0.00 0.00 95 1010.0
20260905105409 72 53 0.0 0.0 0.00 0.00 0.00 95 1009.7
20260905104908 72 45 0.0 0.0 0.00 0.00 0.00 95 1009.7
20260905104359 72 78 0.0 0.0 0.00 0.00 0.00 95 1009.6
20260905103858 72 78 0.0 0.0 0.00 0.00 0.00 95 1009.5
20260905103354 72 78 0.0 0.0 0.00 0.00 0.00 95 1009.6
20260905102850 72 63 0.0 0.0 0.00 0.00 0.00 94 1009.4
20260905102347 72 57 0.0 0.0 0.00 0.00 0.00 94 1009.5
20260905101846 72 37 0.0 0.0 0.00 0.00 0.00 94 1009.2
20260905101344 72 51 0.0 0.0 0.00 0.00 0.00 94 1009.4
20260905100839 72 51 0.0 0.0 0.00 0.00 0.00 94 1009.3
20260905100336 72 40 0.0 0.0 0.00 0.00 0.00 94 1009.4
20260905095834 72 43 0.0 0.0 0.00 0.00 0.00 94 1009.4
20260905095329 72 45 0.0 0.0 0.00 0.00 0.00 93 1009.3
20260905094823 72 33 0.0 0.0 0.00 0.00 0.00 93 1009.2
20260905094319 72 40 0.0 0.0 0.00 0.00 0.00 93 1009.2
20260905093818 72 42 0.0 0.0 0.00 0.00 0.00 93 1009.2
20260905093314 72 45 0.0 0.0 0.00 0.00 0.00 93 1009.2
20260905092810 73 39 0.0 0.0 0.00 0.00 0.00 93 1009.2
20260905092309 73 58 0.0 0.0 0.00 0.00 0.00 92 1009.1
20260905091805 73 39 0.9 0.9 0.00 0.00 0.00 92 1009.2
20260905091304 73 119 0.0 0.0 0.00 0.00 0.00 92 1009.3
20260905090803 73 78 0.0 0.0 0.00 0.00 0.00 92 1009.2
20260905090259 73 6 0.9 0.9 0.00 0.00 0.00 92 1009.5
20260905085759 73 32 0.0 0.0 0.00 0.00 0.00 92 1009.3
20260905085259 73 320 0.0 0.9 0.00 0.00 0.00 91 1009.1
20260905084754 73 191 0.0 0.0 0.00 0.00 0.00 91 1008.8
20260905084254 73 244 0.0 0.0 0.00 0.00 0.00 90 1009.0
20260905083748 73 165 0.9 0.9 0.00 0.00 0.00 90 1008.9
20260905083243 73 185 0.9 1.7 0.00 0.00 0.00 91 1009.1
20260905082739 73 82 0.0 0.0 0.00 0.00 0.00 91 1009.1
20260905082236 73 63 0.0 0.0 0.00 0.00 0.00 90 1009.0
20260905081736 73 93 0.0 0.0 0.00 0.00 0.00 90 1009.0
20260905081231 73 352 0.9 0.9 0.00 0.00 0.00 90 1009.0
20260905080731 73 55 0.0 0.0 0.00 0.00 0.00 90 1009.2
20260905080231 73 103 0.9 0.9 0.00 0.00 0.00 90 1009.2
20260905075730 72 73 0.0 0.0 0.00 0.00 0.00 91 1009.3
20260905075229 72 59 0.0 0.0 0.00 0.00 0.00 91 1009.2
20260905074728 72 31 0.0 0.0 0.00 0.00 0.00 92 1009.5
20260905074224 72 123 0.0 0.0 0.00 0.00 0.00 92 1009.2
20260905073719 72 130 2.6 2.6 0.00 0.00 0.00 92 1009.3
20260905073215 72 151 0.0 0.9 0.00 0.00 0.00 92 1009.3
20260905072714 72 96 0.0 0.0 0.00 0.00 0.00 92 1009.5
20260905072209 72 36 0.0 0.0 0.00 0.00 0.00 92 1009.2
20260905071706 72 339 0.0 0.9 0.00 0.00 0.00 92 1009.1
20260905071202 72 98 0.0 0.0 0.00 0.00 0.00 92 1009.1
20260905070656 72 187 0.9 0.9 0.00 0.00 0.00 92 1008.9
20260905070152 72 26 0.0 0.0 0.00 0.00 0.00 92 1009.0
20260905065651 72 224 0.0 0.0 0.00 0.00 0.00 92 1009.0
20260905065145 72 63 0.0 0.0 0.00 0.00 0.00 92 1008.9
20260905064640 72 30 0.0 0.0 0.00 0.00 0.00 92 1009.1
20260905064136 72 45 0.0 0.0 0.00 0.00 0.00 92 1009.3
20260905063634 73 338 0.0 0.0 0.00 0.00 0.00 91 1009.2
20260905063131 73 299 0.9 0.9 0.00 0.00 0.00 91 1009.3
20260905062627 73 70 0.0 0.0 0.00 0.00 0.00 91 1009.3
20260905062126 73 272 0.9 0.9 0.00 0.00 0.00 91 1009.4
20260905061621 73 99 0.9 0.9 0.00 0.00 0.00 91 1009.5
20260905061120 73 218 0.0 0.0 0.00 0.00 0.00 91 1009.4
20260905060616 73 41 0.0 0.0 0.00 0.00 0.00 90 1009.6
20260905060113 74 70 0.0 0.9 0.00 0.00 0.00 89 1009.5
20260905055611 74 31 0.9 1.7 0.00 0.00 0.00 88 1009.6
20260905055106 74 43 0.0 0.0 0.00 0.00 0.00 87 1009.5
20260905054602 74 269 0.0 0.0 0.00 0.00 0.00 87 1009.7
20260905054057 73 161 2.6 2.6 0.00 0.00 0.00 89 1010.0
20260905053556 73 72 0.0 0.0 0.00 0.00 0.00 91 1010.1
20260905053052 73 251 0.0 0.9 0.00 0.00 0.00 92 1010.1
20260905052551 73 62 0.9 0.9 0.00 0.00 0.00 92 1010.4
20260905052046 73 181 0.0 0.0 0.00 0.00 0.00 93 1010.2
20260905051541 73 155 0.0 0.0 0.00 0.00 0.00 93 1010.6
20260905051038 73 221 0.0 0.0 0.00 0.00 0.00 93 1010.4
20260905050533 73 161 1.7 1.7 0.00 0.00 0.00 94 1010.4
20260905050031 73 142 0.9 1.7 0.00 0.00 0.00 95 1010.4
20260905045525 73 43 0.9 0.9 0.00 0.00 0.00 95 1010.8
20260905045021 73 78 0.0 0.0 0.00 0.00 0.00 95 1010.8
20260905044520 73 130 0.9 1.7 0.00 0.00 0.00 96 1010.7
20260905044015 73 345 0.0 0.9 0.00 0.00 0.00 95 1010.5
20260905043514 73 351 0.9 1.7 0.00 0.00 0.00 95 1010.4
20260905043009 73 57 0.0 0.0 0.00 0.00 0.00 95 1010.6
20260905042508 74 316 1.7 1.7 0.00 0.00 0.00 95 1010.4
20260905041958 74 39 0.0 0.9 0.00 0.00 0.00 95 1010.6
20260905041453 74 131 1.7 2.6 0.00 0.00 0.00 95 1010.5
20260905040949 74 350 0.9 0.9 0.00 0.00 0.00 95 1010.4
20260905040448 74 189 0.9 1.7 0.00 0.00 0.00 95 1010.6
20260905035947 74 43 0.0 0.0 0.00 0.28 0.28 95 1010.9
20260905035442 74 288 0.0 0.9 0.00 0.28 0.28 95 1010.8
20260905034940 75 253 1.7 2.6 0.00 0.28 0.28 96 1010.8
20260905034435 75 172 3.5 4.3 0.00 0.28 0.28 96 1011.2
20260905033933 75 291 0.9 0.9 0.00 0.28 0.28 96 1011.1
20260905033428 75 273 0.0 0.0 0.00 0.28 0.28 96 1010.7
20260905032928 75 331 0.0 0.9 0.00 0.28 0.28 96 1010.7
20260905032423 75 237 1.7 1.7 0.00 0.28 0.28 96 1010.6
20260905031918 76 189 0.0 0.9 0.00 0.28 0.28 96 1010.6
20260905031414 76 275 0.9 0.9 0.00 0.28 0.28 96 1010.2
20260905030909 76 320 0.9 0.9 0.00 0.28 0.28 96 1010.1
20260905030400 76 88 0.0 0.0 0.00 0.28 0.28 96 1009.9
20260905025858 76 195 0.0 0.0 0.00 0.28 0.28 96 1010.1
20260905025354 76 134 0.0 0.0 0.00 0.28 0.28 96 1010.2
20260905024850 76 58 0.0 0.0 0.00 0.28 0.28 96 1010.1
20260905024350 75 352 0.0 0.0 0.00 0.28 0.28 96 1010.2
20260905023846 75 29 0.0 0.0 0.00 0.28 0.28 96 1010.7
20260905023341 75 302 0.0 0.9 0.00 0.28 0.28 96 1011.1
20260905022839 75 325 0.0 0.0 0.00 0.28 0.28 96 1010.9
20260905022335 75 340 0.0 0.0 0.00 0.28 0.28 96 1011.1
20260905021830 76 295 0.9 0.9 0.00 0.28 0.28 96 1011.2
20260905021325 76 181 0.9 1.7 0.05 0.28 0.28 96 1011.7
20260905020820 75 275 0.0 0.0 0.17 0.28 0.28 96 1012.4
20260905020315 75 86 0.0 0.0 0.24 0.27 0.27 96 1012.3
20260905015814 74 125 0.9 0.9 0.24 0.26 0.26 95 1013.0
20260905015314 74 126 0.9 0.9 0.17 0.24 0.24 95 1013.6
20260905014813 74 56 0.0 0.0 0.07 0.21 0.21 95 1014.0
20260905014309 73 258 0.0 0.9 0.12 0.21 0.21 94 1014.2
20260905013804 73 98 1.7 2.6 0.05 0.20 0.20 94 1014.3
20260905013300 73 207 0.0 0.0 0.00 0.19 0.19 94 1014.1
20260905012755 73 116 0.0 0.0 0.00 0.19 0.19 94 1014.3
20260905012251 73 338 0.0 0.9 0.07 0.19 0.19 94 1014.1
20260905011747 73 47 0.9 0.9 0.07 0.19 0.19 94 1014.3
20260905011243 73 34 0.0 0.9 0.07 0.18 0.18 94 1014.1
20260905010737 74 44 0.9 1.7 0.12 0.18 0.18 94 1014.0
20260905010232 74 82 0.9 0.9 0.12 0.17 0.17 94 1013.6
20260905005729 74 49 2.6 2.6 0.12 0.16 0.16 94 1013.6
20260905005225 74 35 1.7 1.7 0.12 0.15 0.15 93 1013.6
20260905004719 74 3 3.5 5.2 0.12 0.14 0.14 93 1013.7
20260905004214 74 129 0.9 1.7 0.05 0.13 0.13 92 1013.4
20260905003714 74 127 0.0 0.9 0.05 0.13 0.13 93 1013.1
20260905003210 74 97 1.7 2.6 0.00 0.12 0.12 93 1013.0
20260905002706 75 242 0.9 1.7 0.07 0.12 0.12 93 1013.3
20260905002205 75 325 0.9 1.7 0.07 0.12 0.12 94 1012.8
20260905001701 75 60 0.0 0.0 0.00 0.11 0.11 93 1012.7
20260905001159 75 55 0.9 0.9 0.00 0.11 0.11 93 1012.6